Grand Junction, CO

9:11 PM MDT on August 25, 2016 (GMT -0600)
Walker

Weather History for KGJT - March, 2014

Change the Weather History Date:

Saturday, March 22, 2014

  Actual Average Record
Temperature  
Mean Temperature 43 °F 46 °F  
Max Temperature 53 °F 58 °F 79 °F (2004)
Min Temperature 33 °F 33 °F 13 °F (1923)
Degree Days  
Heating Degree Days 22 20  
Month to date heating degree days 483 487  
Since 1 July heating degree days 5421 4866  
Cooling Degree Days 0 0  
Month to date cooling degree days 0 0  
Year to date cooling degree days 0 0  
Moisture  
Dew Point 28 °F    
Average Humidity 60    
Maximum Humidity 85    
Minimum Humidity 34    
Precipitation  
Precipitation 0.01 in 0.03 in 0.44 in (1980)
Month to date precipitation 0.08 0.61  
Year to date precipitation 1.46 1.73  
Snow  
Snow 0.00 in 0.10 in 2.50 in (1917)
Month to date snowfall T 1.9  
Since 1 July snowfall 25.7 17.4  
Snow Depth 0.00 in    
Sea Level Pressure  
Sea Level Pressure 29.97 in    
Wind  
Wind Speed 9 mph (East)    
Max Wind Speed 31 mph    
Max Gust Speed 37 mph    
Visibility 10 miles    
Events Rain    
T = Trace of Precipitation, MM = Missing Value Source: NWS Daily Summary

Daily Weather History Graph

Daily Weather History Graph

Search for Another Location

Airport or City:

Trip Planner

Search our weather history database for the weather conditions in past years. The results will help you decide how hot, cold, wet, or windy it might be!

Date:

Astronomy

Mar. 22, 2014 Rise Set
Actual Time 7:14 AM MDT 7:28 PM MDT
Civil Twilight 6:47 AM MDT 7:54 PM MDT
Nautical Twilight 6:16 AM MDT 8:26 PM MDT
Astronomical Twilight 5:44 AM MDT 8:58 PM MDT
Moon 12:48 AM MDT (3/22) 11:02 AM MDT (3/22)
Length of Visible Light 13h 07m
Length of Day
12h 13m
Waning Gibbous, 65% of the Moon is Illuminated
Mar 22
Waning Gibbous
Mar 23
Last Quarter
Mar 30
New
Apr 7
First Quarter
Apr 15
Full

Hourly Weather History & Observations

Time (MDT) Temp. Windchill Dew Point Humidity Pressure Visibility Wind Dir Wind Speed Gust Speed Precip Events Conditions
12:53 AM 46.0 °F 42.5 °F 21.0 °F 37% 29.78 in 10.0 mi ESE 6.9 mph - N/A   Clear
1:53 AM 46.9 °F - 19.9 °F 34% 29.77 in 10.0 mi ESE 9.2 mph - N/A   Clear
2:53 AM 46.0 °F 40.2 °F 19.9 °F 35% 29.75 in 10.0 mi East 12.7 mph - N/A   Clear
3:53 AM 45.0 °F 40.1 °F 21.0 °F 39% 29.75 in 10.0 mi East 9.2 mph - N/A   Mostly Cloudy
4:53 AM 45.0 °F 39.7 °F 19.9 °F 37% 29.76 in 10.0 mi East 10.4 mph - N/A   Mostly Cloudy
5:53 AM 45.0 °F 41.8 °F 21.0 °F 39% 29.78 in 10.0 mi ESE 5.8 mph - N/A   Overcast
6:53 AM 42.1 °F 40.2 °F 24.1 °F 49% 29.82 in 10.0 mi Variable 3.5 mph - N/A   Overcast
7:53 AM 43.0 °F 38.8 °F 25.0 °F 49% 29.87 in 10.0 mi SSW 6.9 mph - N/A   Overcast
8:53 AM 46.9 °F - 30.9 °F 54% 29.91 in 10.0 mi NW 11.5 mph - N/A   Overcast
9:53 AM 48.0 °F - 30.9 °F 52% 29.94 in 10.0 mi West 15.0 mph - N/A   Overcast
10:53 AM 42.1 °F 33.3 °F 37.0 °F 82% 30.00 in 6.0 mi North 19.6 mph - 0.00 in Rain Light Rain
11:53 AM 45.0 °F 43.5 °F 36.0 °F 71% 29.99 in 10.0 mi Variable 3.5 mph - 0.00 in   Overcast
12:53 PM 48.9 °F - 30.9 °F 50% 29.99 in 10.0 mi West 9.2 mph - N/A   Clear
1:53 PM 50.0 °F - 30.0 °F 46% 29.97 in 10.0 mi Calm Calm - N/A   Scattered Clouds
2:53 PM 51.1 °F - 30.9 °F 46% 29.96 in 10.0 mi ESE 8.1 mph - N/A   Scattered Clouds
3:25 PM 44.1 °F 35.0 °F 33.1 °F 65% 30.05 in 10.0 mi NE 24.2 mph 36.8 mph 0.00 in Rain Light Rain
3:53 PM 46.9 °F - 30.0 °F 52% 29.99 in 10.0 mi ENE 16.1 mph - 0.00 in   Partly Cloudy
4:53 PM 45.0 °F 36.9 °F 30.9 °F 58% 30.03 in 10.0 mi NE 20.7 mph 27.6 mph N/A   Overcast
5:53 PM 43.0 °F - 32.0 °F 65% 30.07 in 10.0 mi Calm Calm - 0.01 in   Mostly Cloudy
6:53 PM 42.1 °F 36.1 °F 35.1 °F 76% 30.09 in 10.0 mi SSW 10.4 mph - N/A   Mostly Cloudy
7:53 PM 37.0 °F 32.4 °F 33.1 °F 86% 30.11 in 10.0 mi ENE 5.8 mph - N/A   Clear
8:53 PM 36.0 °F 32.1 °F 30.9 °F 82% 30.12 in 10.0 mi East 4.6 mph - N/A   Clear
9:53 PM 35.1 °F 31.0 °F 30.0 °F 82% 30.13 in 10.0 mi ESE 4.6 mph - N/A   Clear
10:53 PM 33.1 °F 26.1 °F 28.9 °F 85% 30.18 in 10.0 mi East 8.1 mph - N/A   Clear
11:53 PM 34.0 °F 26.0 °F 27.0 °F 75% 30.17 in 10.0 mi East 10.4 mph - N/A   Clear